Location: Northam
(31.6525°S, 116.6655°E)
Time: 08:43:49
(UTC+08:00)

CAS-4B - Visible Passes

Search period start: 06 August 2021 00:00
Search period end: 16 August 2021 00:00
Orbit: 530 x 540 km, 43.0° (Epoch: 05 August)

Date Brightness Start Highest point End Pass type
(mag) Time Alt. Az. Time Alt. Az. Time Alt. Az.
06 Aug ? 19:12:27 10° W 19:16:00 27° NW 19:19:20 11° NNE visible
07 Aug ? 19:02:01 10° W 19:05:10 21° NW 19:08:17 10° N visible
08 Aug ? 18:51:47 10° W 18:54:18 16° NW 18:56:49 10° N visible
09 Aug ? 18:42:01 10° WNW 18:43:26 12° NW 18:44:52 10° NNW visible
